[[{"header":{"parameterUnit":"m.s-1","parameterCategory":1,"la1":30.2991,"la2":30.254,"lo1":-89.0895,"lo2":-89.0444,"dy":0.0017,"dx":0.0017,"nx":28,"ny":28,"refTime":"2023-10-15T03:00:00:Z","depth":0,"parameterNumber":2,"parameterNumberName":"U-component_of_WINDS"},"data":[0,0,0,0,0,0,0,0,0,0,0,0,0,0,0,0,0,0,0,0,0,0,0,0,0,0,0,0,0,0,0,0,0,0,0,0,0,0,0,0,0,0,0,0,0,0,0,0,0,0,0,0,0,0,0,0,0,0,1.8105,1.8104,0,1.8062,1.8061,1.8061,1.8049,1.8049,1.805,1.805,1.8002,1.8001,1.7999,0,0,0,0,0,0,0,0,0,0,0,0,0,1.8175,1.8174,1.8105,1.8104,1.8104,1.8062,1.8061,1.806,1.8049,1.8049,1.805,1.805,1.8003,1.8001,1.7999,0,0,0,0,0,0,0,0,0,0,0,0,0,1.8139,1.8173,1.8105,1.8093,1.8092,1.8062,1.8061,1.806,1.8049,1.8049,1.805,1.805,1.8003,1.8001,1.7999,1.7976,0,0,1.7992,1.7991,0,0,0,0,0,0,0,0,1.8141,1.8137,1.8096,1.8094,1.8092,1.8061,1.8068,1.8032,1.8049,1.8065,1.805,1.805,1.8021,1.8017,1.8008,1.7974,1.7972,1.7991,1.799,1.7989,1.7988,0,0,0,0,0,0,0,1.8144,1.8138,1.8088,1.8095,1.8093,1.8089,1.8084,1.8061,1.8041,1.8064,1.8063,1.8058,1.802,1.801,1.8007,1.7971,1.7991,1.7989,1.7988,1.7987,1.7915,1.7915,0,0,0,0,0,0,1.8149,1.8141,1.8089,1.8086,1.8118,1.8087,1.8082,1.8071,1.8042,1.8038,1.8058,1.8058,1.8014,1.801,1.8005,1.7976,1.7989,1.7987,1.7986,1.7916,1.7915,1.7915,0,0,0,0,0,0,1.815,1.8144,1.8091,1.8113,1.8106,1.8086,1.8073,1.807,1.806,1.8037,1.8033,1.8052,1.8014,1.8009,1.7984,1.7974,1.7986,1.7984,1.7917,1.7916,1.7915,1.7919,0,0,0,0,0,0,1.8152,1.8145,1.8137,1.8113,1.8105,1.8071,1.8072,1.8069,1.8056,1.8056,1.803,1.8026,1.8014,1.7987,1.7981,1.7972,1.7982,1.7917,1.7916,1.7915,1.7919,1.7918,1.7917,0,0,0,0,0,1.8155,1.8139,1.8136,1.813,1.8095,1.807,1.8065,1.8053,1.8056,1.8047,1.8032,1.8027,1.7977,1.7985,1.7978,1.7967,1.7918,1.7916,1.7915,1.792,1.7918,1.7917,0,0,0,0,0,0,1.8161,1.8136,1.8133,1.8109,1.8092,1.8068,1.8057,1.8052,1.8033,1.8033,1.8018,1.8012,1.7988,1.7975,1.7984,1.7944,1.7947,1.7945,1.7953,1.7951,1.795,1.7953,1.798,0,0,0,0,0,1.816,1.8143,1.8121,1.8102,1.8094,1.8077,1.8066,1.8058,1.8039,1.8032,1.8015,1.7996,1.7976,1.7963,1.7944,1.7918,1.7911,1.7907,1.7906,1.7906,1.7903,1.7888,1.7885,1.7911,1.7911,1.7911,0,0,1.8156,1.814,1.8131,1.8103,1.8089,1.8071,1.8071,1.8052,1.8038,1.8028,1.8004,1.7991,1.7969,1.7944,1.7932,1.7932,1.7895,1.7904,1.7904,1.7901,1.7886,1.7884,1.7882,1.791,1.791,1.791,0,0,1.8141,1.8128,1.811,1.8097,1.8076,1.8065,1.8061,1.8038,1.8029,1.8005,1.7997,1.798,1.7946,1.793,1.7918,1.7898,1.7892,1.7892,1.7885,1.7871,1.7869,1.7867,1.7858,1.7855,1.7889,1.7889,1.7889,0,1.8139,1.8112,1.8102,1.8083,1.8071,1.8063,1.8044,1.8031,1.8004,1.7995,1.7997,1.7955,1.7939,1.7909,1.7905,1.7895,1.7889,1.7894,1.787,1.7868,1.7866,1.7858,1.7855,1.7889,1.7889,1.7889,1.7889,0,1.8111,1.8092,1.8081,1.8056,1.8043,1.8024,1.8009,1.7997,1.799,1.7979,1.7954,1.7935,1.7911,1.7904,1.7897,1.7873,1.7874,1.7873,1.7876,1.7864,1.7856,1.7852,1.789,1.789,1.789,1.789,0,0,1.8096,1.8067,1.8063,1.8051,1.8028,1.8013,1.7994,1.7972,1.7961,1.7943,1.7926,1.7898,1.7897,1.7883,1.7874,1.7862,1.7845,1.7862,1.7861,1.7858,1.7816,1.7816,1.7813,1.7842,1.7841,1.7841,1.7818,0,1.8077,1.8044,1.8033,1.8005,1.7987,1.798,1.7963,1.7946,1.7935,1.7918,1.7905,1.7885,1.7886,1.7877,1.7865,1.785,1.7836,1.7852,1.7824,1.7823,1.7828,1.7809,1.7808,1.7787,1.7815,1.7814,1.7814,0,1.805,1.8032,1.8002,1.7981,1.7974,1.7959,1.7938,1.7922,1.7902,1.7895,1.788,1.7873,1.7851,1.7857,1.7826,1.7837,1.7825,1.7816,1.7815,1.7811,1.7817,1.7802,1.7781,1.7777,1.7809,1.7809,1.781,0,1.8041,1.801,1.7988,1.7979,1.7954,1.7944,1.7933,1.7914,1.7901,1.7883,1.7874,1.7853,1.7841,1.7824,1.7811,1.7816,1.7781,1.7786,1.7773,1.7773,1.7765,1.7765,1.7739,1.776,1.776,1.776,1.776,0,1.8019,1.8001,1.7984,1.797,1.7949,1.7937,1.7916,1.7905,1.7888,1.7871,1.7864,1.7848,1.7832,1.7814,1.7803,1.7779,1.7774,1.7766,1.7763,1.7766,1.7767,1.7757,1.7757,1.7759,1.7759,1.7759,1.776,0,1.8005,1.7993,1.7968,1.7947,1.7941,1.7927,1.7908,1.7894,1.7883,1.7862,1.7856,1.7838,1.7816,1.7802,1.7774,1.7767,1.774,1.7738,1.7746,1.7745,1.7733,1.7733,1.7698,1.7692,1.7719,1.7718,1.7718,0,1.7991,1.7977,1.7955,1.7944,1.7933,1.7915,1.7902,1.789,1.7877,1.7854,1.7843,1.7821,1.7802,1.7767,1.7751,1.7729,1.7726,1.7715,1.7722,1.7725,1.7724,1.7724,1.7722,1.7713,1.7713,1.7713,1.7713,0,1.7968,1.7963,1.7945,1.7926,1.7911,1.7895,1.7878,1.7869,1.7854,1.784,1.7818,1.7804,1.7776,1.7753,1.773,1.7718,1.7712,1.7711,1.7707,1.7708,1.7713,1.7709,1.7742,1.7711,1.7711,1.7712,1.7712,1.7712,1.7952,1.7939,1.7921,1.7902,1.7889,1.7874,1.7859,1.7847,1.7829,1.7806,1.78,1.7777,1.7757,1.7726,1.7713,1.7694,1.7695,1.7689,1.7688,1.7686,1.7685,1.7718,1.769,1.769,1.769,1.769,1.769,0,1.7927,1.7916,1.7898,1.7876,1.7861,1.7859,1.7841,1.7827,1.7807,1.7791,1.7773,1.7748,1.7726,1.7709,1.7686,1.7674,1.7671,1.7669,1.7668,1.7665,1.7686,1.7691,1.7672,1.7672,1.7672,1.7672,1.7672,1.7672,1.7912,1.7889,1.7882,1.7852,1.7841,1.7819,1.7808,1.7794,1.7781,1.7753,1.7736,1.7725,1.7708,1.7684,1.7664,1.7659,1.7651,1.7648,1.7643,1.7662,1.7664,1.7666,1.7671,1.7647,1.7647,1.7624,1.7624,1.7623]},{"header":{"parameterUnit":"m.s-1","parameterCategory":1,"la1":30.2991,"la2":30.254,"lo1":-89.0895,"lo2":-89.0444,"dy":0.0017,"dx":0.0017,"nx":28,"ny":28,"refTime":"2023-10-15T03:00:00:Z","depth":0,"parameterNumber":3,"parameterNumberName":"V-component_of_WINDS"},"data":[0,0,0,0,0,0,0,0,0,0,0,0,0,0,0,0,0,0,0,0,0,0,0,0,0,0,0,0,0,0,0,0,0,0,0,0,0,0,0,0,0,0,0,0,0,0,0,0,0,0,0,0,0,0,0,0,0,0,-6.2872,-6.2875,0,-6.3118,-6.3121,-6.3124,-6.3055,-6.305,-6.3045,-6.304,-6.3289,-6.33,-6.3311,0,0,0,0,0,0,0,0,0,0,0,0,0,-6.2341,-6.2351,-6.2872,-6.2875,-6.2878,-6.3118,-6.3121,-6.3124,-6.3055,-6.3049,-6.3043,-6.3038,-6.3285,-6.3298,-6.3312,0,0,0,0,0,0,0,0,0,0,0,0,0,-6.2578,-6.2355,-6.2872,-6.2873,-6.2875,-6.3117,-6.3121,-6.3125,-6.3057,-6.3049,-6.3042,-6.3035,-6.328,-6.3297,-6.3314,-6.3568,0,0,-6.3365,-6.3373,0,0,0,0,0,0,0,0,-6.2564,-6.2597,-6.287,-6.2873,-6.2876,-6.3048,-6.3025,-6.3274,-6.3059,-6.2988,-6.304,-6.3031,-6.3214,-6.3236,-6.3299,-6.3579,-6.359,-6.3367,-6.3377,-6.3384,-6.3389,0,0,0,0,0,0,0,-6.2548,-6.2586,-6.2969,-6.2874,-6.2878,-6.286,-6.2886,-6.3072,-6.314,-6.2993,-6.2989,-6.3019,-6.3215,-6.3283,-6.3304,-6.3594,-6.3366,-6.3381,-6.3392,-6.3398,-6.4097,-6.4105,0,0,0,0,0,0,-6.2529,-6.2573,-6.2961,-6.2977,-6.2699,-6.2876,-6.2904,-6.3,-6.3138,-6.3152,-6.3025,-6.3015,-6.3257,-6.3284,-6.3313,-6.3621,-6.3384,-6.34,-6.341,-6.4089,-6.4099,-6.4108,0,0,0,0,0,0,-6.2518,-6.2565,-6.2951,-6.2774,-6.2822,-6.2893,-6.3002,-6.3009,-6.3077,-6.3162,-6.3173,-6.3082,-6.3253,-6.3289,-6.3506,-6.3629,-6.3408,-6.3423,-6.4079,-6.4092,-6.4104,-6.4239,0,0,0,0,0,0,-6.2503,-6.2561,-6.2659,-6.2777,-6.2832,-6.3142,-6.3009,-6.3019,-6.3107,-6.3096,-6.3218,-6.3232,-6.3249,-6.3481,-6.3522,-6.3648,-6.3436,-6.4068,-6.4085,-6.41,-6.4224,-6.4255,-6.4281,0,0,0,0,0,-6.2485,-6.2686,-6.2664,-6.2712,-6.2956,-6.3149,-6.318,-6.3198,-6.3117,-6.3216,-6.3271,-6.3228,-6.3608,-6.3503,-6.355,-6.3682,-6.406,-6.408,-6.4098,-6.4211,-6.4249,-6.428,0,0,0,0,0,0,-6.258,-6.2702,-6.2679,-6.2925,-6.3027,-6.3137,-6.3262,-6.3236,-6.3363,-6.3347,-6.3362,-6.3391,-6.3613,-6.3669,-6.355,-6.3936,-6.3822,-6.3851,-6.3892,-6.3929,-6.3957,-6.3939,-6.345,0,0,0,0,0,-6.263,-6.2778,-6.2875,-6.3083,-6.3136,-6.319,-6.3275,-6.328,-6.3386,-6.3429,-6.3499,-6.3603,-6.3746,-6.384,-6.3976,-6.4231,-6.4257,-6.4345,-6.4373,-6.4396,-6.4422,-6.4563,-6.4603,-6.417,-6.417,-6.417,0,0,-6.2734,-6.2819,-6.2911,-6.3104,-6.3184,-6.3337,-6.3227,-6.3392,-6.3506,-6.3453,-6.3663,-6.3719,-6.3836,-6.4073,-6.4181,-6.4127,-6.4547,-6.4421,-6.4438,-6.4452,-6.4586,-6.4627,-6.4664,-6.4183,-6.4181,-6.4179,0,0,-6.3002,-6.3081,-6.3263,-6.3346,-6.3469,-6.3504,-6.3548,-6.3662,-6.3698,-6.3909,-6.3873,-6.4007,-6.4253,-6.4339,-6.4414,-6.4716,-6.4682,-6.476,-6.491,-6.5047,-6.5081,-6.5111,-6.5221,-6.5259,-6.4784,-6.4785,-6.4785,0,-6.3116,-6.3345,-6.336,-6.353,-6.3616,-6.3577,-6.3762,-6.3841,-6.4002,-6.4062,-6.3999,-6.4308,-6.4383,-6.4641,-6.4715,-6.4777,-6.4828,-6.4747,-6.5075,-6.5105,-6.5134,-6.5238,-6.5279,-6.4794,-6.4793,-6.4792,-6.4791,0,-6.348,-6.3639,-6.3772,-6.393,-6.4031,-6.4207,-6.4249,-6.4349,-6.4345,-6.4387,-6.4603,-6.4692,-6.4847,-6.4908,-6.4905,-6.5166,-6.5129,-6.507,-6.4956,-6.5184,-6.5282,-6.5322,-6.4806,-6.4803,-6.48,-6.4798,0,0,-6.3816,-6.3981,-6.403,-6.4102,-6.4235,-6.4358,-6.4532,-6.4685,-6.4771,-6.4883,-6.5031,-6.524,-6.5187,-6.5273,-6.5279,-6.5399,-6.5635,-6.5326,-6.5328,-6.5382,-6.593,-6.5975,-6.6022,-6.5612,-6.562,-6.5626,-6.5921,0,-6.4097,-6.4406,-6.4425,-6.4704,-6.4853,-6.4818,-6.497,-6.5068,-6.5111,-6.5243,-6.529,-6.5439,-6.5357,-6.5409,-6.5526,-6.5581,-6.5745,-6.556,-6.575,-6.5757,-6.5724,-6.6073,-6.6121,-6.6395,-6.596,-6.5966,-6.5971,0,-6.4467,-6.4593,-6.4888,-6.5001,-6.5064,-6.5201,-6.5343,-6.5468,-6.5579,-6.5602,-6.5699,-6.5689,-6.5867,-6.5746,-6.5993,-6.5867,-6.5945,-6.5984,-6.5995,-6.6015,-6.5879,-6.6104,-6.6483,-6.6525,-6.6031,-6.6027,-6.6022,0,-6.4685,-6.4927,-6.5136,-6.5198,-6.5335,-6.5432,-6.5494,-6.5597,-6.5688,-6.5811,-6.5871,-6.6013,-6.6091,-6.6201,-6.6229,-6.6138,-6.6477,-6.6357,-6.6502,-6.6502,-6.6577,-6.6572,-6.6976,-6.6624,-6.6623,-6.6622,-6.6622,0,-6.4999,-6.5181,-6.5236,-6.5365,-6.5568,-6.5587,-6.5787,-6.5842,-6.5935,-6.6073,-6.605,-6.618,-6.6208,-6.6344,-6.6367,-6.6569,-6.6604,-6.6628,-6.6632,-6.6632,-6.6629,-6.6685,-6.6667,-6.6633,-6.6631,-6.6629,-6.6627,0,-6.5278,-6.5322,-6.5547,-6.5659,-6.5691,-6.5836,-6.5932,-6.6055,-6.6095,-6.6271,-6.6313,-6.6377,-6.6536,-6.6575,-6.6763,-6.6778,-6.7018,-6.7003,-6.6982,-6.6982,-6.7125,-6.7112,-6.7581,-6.7644,-6.7249,-6.7252,-6.7255,0,-6.5476,-6.5616,-6.5743,-6.5835,-6.5901,-6.6049,-6.6142,-6.6166,-6.6264,-6.6401,-6.6508,-6.6664,-6.6791,-6.7046,-6.7109,-6.7253,-6.7243,-6.7397,-6.7264,-6.726,-6.7248,-6.724,-6.7255,-6.7423,-6.7427,-6.743,-6.7433,0,-6.5824,-6.5839,-6.5975,-6.612,-6.6232,-6.6346,-6.6455,-6.6531,-6.657,-6.6682,-6.6845,-6.6943,-6.7136,-6.7292,-6.7438,-6.75,-6.7475,-6.7474,-6.7516,-6.7518,-6.7501,-6.7514,-6.7053,-6.7464,-6.7461,-6.7459,-6.7457,-6.7456,-6.607,-6.6194,-6.6303,-6.6456,-6.6541,-6.6644,-6.6766,-6.6822,-6.6959,-6.712,-6.7125,-6.7303,-6.741,-6.7603,-6.7674,-6.7813,-6.7766,-6.7825,-6.7841,-6.7856,-6.787,-6.7477,-6.7839,-6.7838,-6.7838,-6.7837,-6.7836,0,-6.6419,-6.6488,-6.6628,-6.6783,-6.6903,-6.6868,-6.6987,-6.709,-6.7248,-6.735,-6.7476,-6.7664,-6.7815,-6.789,-6.804,-6.8137,-6.8129,-6.8176,-6.817,-6.8186,-6.7902,-6.7853,-6.818,-6.818,-6.818,-6.818,-6.818,-6.818,-6.6615,-6.6823,-6.6851,-6.7101,-6.7168,-6.7343,-6.7415,-6.751,-6.7592,-6.7803,-6.793,-6.7978,-6.807,-6.8227,-6.8364,-6.8382,-6.8439,-6.8493,-6.8505,-6.824,-6.8205,-6.8172,-6.8125,-6.8505,-6.8505,-6.8777,-6.878,-6.8782]}]]